�������l�o���
Date,Time,MP-1(��Sv/h),MP-2(��Sv/h),MP-3(��Sv/h),MP-4(��Sv/h),MP-5(��Sv/h),MP-6(��Sv/h),MP-7(��Sv/h),MP-8(��Sv/h),����,����(m/s),���J
2022/03/02,00:00,0.589,0.877,0.555,1.070,0.763,0.354,0.611,0.580,�k,5.8,��
2022/03/02,00:10,0.589,0.876,0.555,1.069,0.762,0.354,0.611,0.577,�k�k��,5.0,��
2022/03/02,00:20,0.589,0.875,0.555,1.072,0.763,0.353,0.612,0.577,�k��,5.9,��
2022/03/02,00:30,0.588,0.876,0.555,1.071,0.763,0.354,0.611,0.578,�k��,7.1,��
2022/03/02,00:40,0.589,0.875,0.556,1.073,0.762,0.352,0.614,0.578,�k��,8.5,��
2022/03/02,00:50,0.590,0.875,0.555,1.072,0.764,0.353,0.611,0.578,�k��,8.1,��
2022/03/02,01:00,0.589,0.876,0.554,1.071,0.763,0.353,0.613,0.579,�k��,6.6,��
2022/03/02,01:10,0.589,0.876,0.556,1.071,0.762,0.353,0.613,0.577,�k��,6.0,��
2022/03/02,01:20,0.590,0.876,0.554,1.073,0.763,0.353,0.611,0.578,���k��,4.8,��
2022/03/02,01:30,0.591,0.876,0.556,1.070,0.764,0.352,0.612,0.578,��,5.7,��
2022/03/02,01:40,0.589,0.876,0.555,1.071,0.762,0.353,0.613,0.577,��,4.2,��
2022/03/02,01:50,0.588,0.877,0.555,1.073,0.763,0.353,0.612,0.577,��,5.0,��
2022/03/02,02:00,0.588,0.876,0.555,1.073,0.762,0.353,0.612,0.577,���쐼,3.3,��
2022/03/02,02:10,0.589,0.873,0.555,1.072,0.764,0.353,0.614,0.577,��,5.1,��
2022/03/02,02:20,0.589,0.877,0.555,1.069,0.762,0.352,0.612,0.580,��,6.1,��
2022/03/02,02:30,0.590,0.877,0.554,1.072,0.761,0.353,0.613,0.578,��,5.9,��
2022/03/02,02:40,0.589,0.876,0.553,1.071,0.759,0.353,0.612,0.578,��,8.4,��
2022/03/02,02:50,0.589,0.874,0.555,1.070,0.763,0.352,0.613,0.579,��,8.2,��
2022/03/02,03:00,0.590,0.876,0.554,1.073,0.763,0.354,0.612,0.577,���k��,7.1,��
2022/03/02,03:10,0.590,0.875,0.555,1.071,0.764,0.353,0.613,0.578,���k��,6.6,��
2022/03/02,03:20,0.589,0.874,0.555,1.072,0.763,0.352,0.613,0.576,���k��,5.6,��
2022/03/02,03:30,0.589,0.874,0.554,1.071,0.764,0.352,0.613,0.578,���k��,4.5,��
2022/03/02,03:40,0.590,0.875,0.555,1.070,0.762,0.353,0.614,0.577,���k��,3.9,��
2022/03/02,03:50,0.591,0.874,0.555,1.073,0.762,0.354,0.614,0.578,���k��,3.8,��
2022/03/02,04:00,0.591,0.873,0.555,1.070,0.763,0.354,0.615,0.577,���k��,4.1,��
2022/03/02,04:10,0.589,0.875,0.554,1.072,0.762,0.353,0.613,0.578,���k��,2.8,��
2022/03/02,04:20,0.588,0.876,0.556,1.073,0.763,0.353,0.613,0.577,���k��,3.0,��
2022/03/02,04:30,0.588,0.877,0.554,1.070,0.763,0.353,0.613,0.578,���k��,2.9,��
2022/03/02,04:40,0.590,0.875,0.555,1.074,0.762,0.353,0.613,0.578,���k��,2.2,��
2022/03/02,04:50,0.588,0.877,0.555,1.072,0.761,0.353,0.613,0.578,���k��,3.3,��
2022/03/02,05:00,0.590,0.874,0.554,1.072,0.761,0.352,0.614,0.576,���k��,4.0,��
2022/03/02,05:10,0.589,0.875,0.554,1.072,0.762,0.352,0.612,0.578,�k��,4.1,��
2022/03/02,05:20,0.588,0.875,0.554,1.071,0.762,0.352,0.612,0.578,�k��,4.1,��
2022/03/02,05:30,0.587,0.874,0.555,1.070,0.763,0.353,0.612,0.577,�k��,3.4,��
2022/03/02,05:40,0.589,0.874,0.554,1.070,0.761,0.350,0.612,0.577,���k��,2.3,��
2022/03/02,05:50,0.588,0.875,0.554,1.069,0.762,0.352,0.612,0.577,�k��,3.0,��
2022/03/02,06:00,0.588,0.874,0.553,1.071,0.763,0.350,0.612,0.578,���k��,3.6,��
2022/03/02,06:10,0.587,0.875,0.553,1.069,0.761,0.353,0.611,0.578,���k��,3.5,��
2022/03/02,06:20,0.588,0.873,0.553,1.070,0.760,0.352,0.611,0.578,���k��,3.5,��
2022/03/02,06:30,0.587,0.873,0.554,1.072,0.763,0.352,0.611,0.577,���k��,3.1,��
2022/03/02,06:40,0.588,0.876,0.552,1.072,0.763,0.352,0.611,0.578,�k��,3.5,��
2022/03/02,06:50,0.590,0.873,0.555,1.072,0.762,0.352,0.611,0.577,�k��,3.8,��
2022/03/02,07:00,0.588,0.874,0.553,1.070,0.762,0.352,0.612,0.576,�k��,3.2,��
2022/03/02,07:10,0.588,0.874,0.555,1.071,0.761,0.352,0.613,0.579,���k��,2.2,��
2022/03/02,07:20,0.588,0.876,0.554,1.071,0.763,0.352,0.612,0.578,�k��,2.9,��
2022/03/02,07:30,0.589,0.878,0.553,1.069,0.762,0.351,0.612,0.576,�k��,2.0,��
2022/03/02,07:40,0.588,0.875,0.552,1.071,0.763,0.350,0.614,0.577,�k��,1.5,��
2022/03/02,07:50,0.589,0.872,0.554,1.072,0.762,0.351,0.613,0.577,�k��,1.2,��
2022/03/02,08:00,0.588,0.873,0.554,1.071,0.762,0.350,0.613,0.577,�k��,2.2,��
2022/03/02,08:10,0.589,0.877,0.555,1.069,0.760,0.351,0.613,0.576,�k,2.0,��
2022/03/02,08:20,0.588,0.874,0.555,1.072,0.763,0.351,0.612,0.577,�k�k��,3.5,��
2022/03/02,08:30,0.588,0.874,0.556,1.072,0.763,0.351,0.612,0.578,�k,2.3,��
2022/03/02,08:40,0.589,0.873,0.554,1.070,0.761,0.351,0.614,0.577,�k�k��,2.6,��
2022/03/02,08:50,0.589,0.873,0.553,1.073,0.763,0.351,0.612,0.577,�k�k��,3.6,��
2022/03/02,09:00,0.590,0.872,0.554,1.071,0.763,0.351,0.613,0.578,�k�k��,3.2,��
2022/03/02,09:10,0.590,0.872,0.553,1.071,0.761,0.351,0.611,0.578,�k��,3.9,��
2022/03/02,09:20,0.591,0.871,0.555,1.073,0.764,0.352,0.610,0.577,�k��,3.7,��
2022/03/02,09:30,0.588,0.868,0.556,1.073,0.764,0.352,0.611,0.579,�k��,3.2,��
2022/03/02,09:40,0.589,0.869,0.556,1.070,0.764,0.354,0.610,0.578,�k��,4.3,��
2022/03/02,09:50,0.590,0.873,0.555,1.072,0.764,0.352,0.609,0.578,�k�k��,3.9,��
2022/03/02,10:00,0.591,0.871,0.556,1.072,0.763,0.352,0.610,0.577,�k��,4.3,��
2022/03/02,10:10,0.590,0.871,0.556,1.072,0.764,0.352,0.610,0.578,�k��,4.0,��
2022/03/02,10:20,0.588,0.873,0.555,1.073,0.763,0.352,0.610,0.575,���k��,3.4,��
2022/03/02,10:30,0.588,0.874,0.556,1.071,0.764,0.353,0.609,0.577,��,3.8,��
2022/03/02,10:40,0.588,0.873,0.554,1.073,0.763,0.353,0.607,0.577,���k��,3.2,��
2022/03/02,10:50,0.590,0.871,0.555,1.072,0.761,0.351,0.609,0.576,��,3.4,��
2022/03/02,11:00,0.591,0.870,0.553,1.070,0.764,0.352,0.610,0.576,��,2.8,��
2022/03/02,11:10,0.590,0.873,0.556,1.073,0.765,0.352,0.610,0.577,��,4.0,��
2022/03/02,11:20,0.591,0.874,0.556,1.072,0.765,0.353,0.610,0.575,���k��,3.4,��
2022/03/02,11:30,0.590,0.874,0.556,1.071,0.763,0.352,0.609,0.576,���k��,2.8,��
2022/03/02,11:40,0.593,0.877,0.556,1.071,0.763,0.353,0.609,0.574,�k��,4.3,��
2022/03/02,11:50,0.590,0.878,0.554,1.074,0.764,0.352,0.610,0.576,�k��,4.7,��
2022/03/02,12:00,0.590,0.878,0.556,1.074,0.765,0.352,0.610,0.574,�k��,5.1,��
2022/03/02,12:10,0.590,0.878,0.555,1.072,0.764,0.353,0.610,0.575,�k��,4.2,��
2022/03/02,12:20,0.590,0.877,0.555,1.072,0.764,0.353,0.610,0.576,�k��,4.6,��
2022/03/02,12:30,0.590,0.876,0.555,1.071,0.762,0.354,0.611,0.575,�k��,4.5,��
2022/03/02,12:40,0.589,0.870,0.555,1.075,0.764,0.353,0.608,0.574,���k��,4.8,��
2022/03/02,12:50,0.591,0.868,0.554,1.071,0.762,0.353,0.610,0.577,�k��,4.5,��
2022/03/02,13:00,0.590,0.874,0.557,1.072,0.762,0.353,0.609,0.576,�k��,4.9,��
2022/03/02,13:10,0.590,0.873,0.553,1.075,0.762,0.353,0.611,0.576,�k��,5.1,��
2022/03/02,13:20,0.590,0.873,0.554,1.072,0.762,0.352,0.610,0.577,�k��,4.6,��
2022/03/02,13:30,0.590,0.870,0.555,1.074,0.763,0.354,0.610,0.578,���k��,3.8,��
2022/03/02,13:40,0.589,0.870,0.555,1.071,0.763,0.354,0.611,0.577,�k��,3.1,��
2022/03/02,13:50,0.590,0.867,0.553,1.071,0.763,0.352,0.612,0.577,�k�k��,3.9,��
2022/03/02,14:00,0.589,0.870,0.553,1.074,0.760,0.354,0.612,0.578,�k,5.5,��
2022/03/02,14:10,0.589,0.872,0.554,1.074,0.764,0.353,0.611,0.578,�k,5.8,��
2022/03/02,14:20,0.590,0.877,0.555,1.073,0.763,0.353,0.610,0.577,�k,3.9,��
2022/03/02,14:30,0.591,0.876,0.556,1.074,0.763,0.354,0.610,0.576,�k��,2.5,��
2022/03/02,14:40,0.589,0.874,0.556,1.071,0.762,0.353,0.612,0.575,�k��,3.9,��
2022/03/02,14:50,0.590,0.874,0.556,1.073,0.761,0.352,0.612,0.574,��,4.8,��
2022/03/02,15:00,0.591,0.875,0.556,1.073,0.763,0.354,0.611,0.575,�k��,2.3,��
2022/03/02,15:10,0.591,0.878,0.556,1.074,0.766,0.352,0.610,0.578,�k�k��,1.9,��
2022/03/02,15:20,0.590,0.879,0.558,1.074,0.766,0.351,0.611,0.579,���k��,2.8,��
2022/03/02,15:30,0.590,0.878,0.554,1.072,0.764,0.353,0.610,0.579,���k��,4.8,��
2022/03/02,15:40,0.591,0.877,0.556,1.073,0.764,0.354,0.610,0.578,���쓌,5.2,��
2022/03/02,15:50,0.591,0.881,0.556,1.075,0.765,0.352,0.610,0.578,���쓌,2.9,��
2022/03/02,16:00,0.591,0.877,0.555,1.073,0.765,0.354,0.610,0.577,���쓌,3.4,��
2022/03/02,16:10,0.591,0.879,0.555,1.074,0.766,0.352,0.611,0.579,�쓌,4.0,��
2022/03/02,16:20,0.590,0.880,0.556,1.073,0.763,0.353,0.611,0.577,�쓌,3.4,��
2022/03/02,16:30,0.590,0.878,0.555,1.072,0.766,0.352,0.613,0.577,�쓌,4.5,��
2022/03/02,16:40,0.589,0.877,0.555,1.072,0.765,0.351,0.611,0.578,���쓌,4.1,��
2022/03/02,16:50,0.590,0.876,0.556,1.074,0.763,0.352,0.612,0.577,�쓌,4.7,��
2022/03/02,17:00,0.590,0.878,0.555,1.072,0.765,0.353,0.611,0.578,�쓌,6.2,��
2022/03/02,17:10,0.590,0.879,0.555,1.073,0.764,0.352,0.613,0.577,��쓌,6.1,��
2022/03/02,17:20,0.589,0.879,0.555,1.074,0.765,0.353,0.614,0.577,��쓌,6.4,��
2022/03/02,17:30,0.589,0.878,0.555,1.072,0.764,0.353,0.613,0.577,�쓌,5.7,��
2022/03/02,17:40,0.586,0.879,0.555,1.075,0.765,0.353,0.612,0.578,��쓌,7.3,��
2022/03/02,17:50,0.590,0.878,0.557,1.073,0.764,0.355,0.613,0.579,��쓌,7.8,��
2022/03/02,18:00,0.590,0.879,0.556,1.071,0.762,0.352,0.611,0.579,��쓌,7.0,��
2022/03/02,18:10,0.590,0.879,0.554,1.072,0.765,0.353,0.613,0.575,��쓌,5.9,��
2022/03/02,18:20,0.590,0.881,0.557,1.073,0.764,0.352,0.612,0.579,��쓌,5.0,��
2022/03/02,18:30,0.590,0.880,0.554,1.073,0.763,0.352,0.612,0.578,��,2.6,��
2022/03/02,18:40,0.589,0.877,0.553,1.071,0.765,0.352,0.612,0.578,��쓌,3.6,��
2022/03/02,18:50,0.589,0.877,0.554,1.074,0.765,0.351,0.612,0.578,��,2.5,��
2022/03/02,19:00,0.588,0.879,0.554,1.072,0.765,0.352,0.611,0.577,�쐼,0.9,��
2022/03/02,19:10,0.588,0.879,0.552,1.071,0.763,0.351,0.611,0.578,�k�k��,0.9,��
2022/03/02,19:20,0.588,0.880,0.554,1.073,0.765,0.351,0.613,0.576,�k��,1.2,��
2022/03/02,19:30,0.589,0.881,0.553,1.071,0.764,0.351,0.611,0.578,�k�k��,1.2,��
2022/03/02,19:40,0.588,0.880,0.553,1.074,0.763,0.351,0.611,0.577,�k�k��,1.1,��
2022/03/02,19:50,0.587,0.879,0.555,1.071,0.762,0.351,0.611,0.576,���k��,1.7,��
2022/03/02,20:00,0.587,0.878,0.552,1.071,0.762,0.351,0.612,0.577,���k��,1.7,��
2022/03/02,20:10,0.586,0.878,0.556,1.071,0.764,0.353,0.612,0.578,��,2.0,��
2022/03/02,20:20,0.587,0.877,0.555,1.072,0.766,0.352,0.612,0.577,���k��,1.7,��
2022/03/02,20:30,0.587,0.878,0.555,1.074,0.763,0.351,0.612,0.576,�k��,1.2,��
2022/03/02,20:40,0.590,0.879,0.555,1.073,0.763,0.352,0.611,0.578,�k�k��,1.7,��
2022/03/02,20:50,0.589,0.876,0.554,1.074,0.764,0.352,0.611,0.578,�k,2.0,��
2022/03/02,21:00,0.589,0.879,0.553,1.073,0.765,0.351,0.611,0.578,�k�k��,2.6,��
2022/03/02,21:10,0.590,0.878,0.552,1.073,0.763,0.350,0.611,0.577,�k,2.6,��
2022/03/02,21:20,0.590,0.877,0.553,1.073,0.763,0.353,0.610,0.577,�k,2.3,��
2022/03/02,21:30,0.588,0.878,0.554,1.074,0.762,0.352,0.612,0.577,�k�k��,2.0,��
2022/03/02,21:40,0.588,0.878,0.554,1.073,0.764,0.352,0.611,0.575,�k�k��,3.6,��
2022/03/02,21:50,0.589,0.878,0.554,1.071,0.764,0.351,0.612,0.578,�k�k��,3.7,��
2022/03/02,22:00,0.587,0.878,0.553,1.074,0.765,0.351,0.612,0.578,�k��,4.0,��
2022/03/02,22:10,0.590,0.877,0.555,1.071,0.764,0.353,0.611,0.577,�k�k��,3.5,��
2022/03/02,22:20,0.589,0.877,0.555,1.075,0.763,0.350,0.611,0.577,�k��,3.3,��
2022/03/02,22:30,0.586,0.878,0.554,1.073,0.764,0.352,0.611,0.578,�k�k��,4.4,��
2022/03/02,22:40,0.588,0.878,0.554,1.073,0.765,0.351,0.612,0.578,�k�k��,5.2,��
2022/03/02,22:50,0.588,0.880,0.554,1.073,0.764,0.352,0.611,0.576,�k�k��,4.9,��
2022/03/02,23:00,0.588,0.878,0.556,1.073,0.764,0.351,0.611,0.578,�k�k��,4.9,��
2022/03/02,23:10,0.587,0.877,0.554,1.071,0.764,0.352,0.612,0.579,�k�k��,4.1,��
2022/03/02,23:20,0.590,0.878,0.554,1.071,0.762,0.352,0.611,0.579,�k��,4.1,��
2022/03/02,23:30,0.588,0.876,0.555,1.070,0.763,0.353,0.613,0.578,�k�k��,3.6,��
2022/03/02,23:40,0.589,0.877,0.554,1.073,0.764,0.352,0.613,0.578,�k,2.0,��
2022/03/02,23:50,0.588,0.877,0.554,1.073,0.763,0.354,0.612,0.578,�k,1.9,��
